Simultaneous Nadir Overpasses (SNOs) Predictions

Prediction of SNOs between AQUA and METOP-C Satellite Orbit:

Table of predicted SNOs for the next 14.0 days since TLE Epoch: 6/12/2020
Index Date (AQUA) Time (AQUA) Lat,Lon (AQUA) SZA (AQUA ) Date (METOP-C) Time (METOP-C) Lat,Lon (METOP-C) SZA (METOP-C ) Distance(km) Time Diff (sec)
1 06/15/2020 05:56:09 -73.71, -94.53 129.62 06/15/2020 05:55:02 -73.69, -94.52 129.62 2.01 67
2 06/15/2020 06:45:37 73.77, 73.00 50.44 06/15/2020 06:45:39 73.79, 73.05 50.47 3.27 2
3 06/15/2020 07:35:06 -73.92,-119.69 129.40 06/15/2020 07:36:19 -73.92,-119.32 129.42 11.54 73
4 06/18/2020 01:30:23 -73.71, -28.09 129.69 06/18/2020 01:29:23 -73.72, -28.06 129.68 1.13 60
5 06/18/2020 02:19:51 73.77, 139.42 50.37 06/18/2020 02:20:01 73.77, 139.39 50.37 1.18 10
6 06/18/2020 03:09:26 -74.22, -53.96 129.14 06/18/2020 03:10:35 -74.19, -52.25 129.24 51.99 69
7 06/20/2020 21:04:38 -73.72, 38.34 129.71 06/20/2020 21:03:45 -73.74, 38.40 129.68 3.25 53
8 06/20/2020 21:54:06 73.78,-154.16 50.36 06/20/2020 21:54:23 73.79,-154.15 50.37 1.03 17
9 06/20/2020 22:43:46 -74.49, 11.85 128.88 06/20/2020 22:44:51 -74.51, 14.97 128.97 92.62 65
10 06/23/2020 16:38:53 -73.73, 104.75 129.67 06/23/2020 16:38:08 -73.71, 104.74 129.67 1.85 45
11 06/23/2020 17:28:21 73.80, -87.75 50.41 06/23/2020 17:28:45 73.81, -87.69 50.42 2.66 24
12 06/26/2020 12:13:07 -73.75, 171.16 129.56 06/26/2020 12:12:29 -73.73, 171.19 129.57 1.98 38
13 06/26/2020 13:02:35 73.81, -21.35 50.52 06/26/2020 13:03:07 73.78, -21.35 50.48 3.45 32




NCC Satellite Simultaneous Nadir Overpasses (SNOs) Prediction Service
